Back to catalog

OPS 4682 DEB

AlivePO
NORAD 49110·DEBRIS·🇺🇸 United States

Launched Apr 3, 1965 from Vandenberg Space Force Base

Loading…

Next Passes (next 24 hours)

TLE

AgingSource: Space-Track

Epoch: Sep 5, 2026, 19:14 UTC

1 49110U 65027FT  26248.80142697  .00000799  00000-0  26542-2 0  9990
2 49110  90.2586  14.7636 0040034 175.5699 184.5785 12.99150472446807

Track OPS 4682 DEB in real time with AllMySat

Download on the App Store